Погода в Воеводском

Россия / Республика Мордовия     53°57′40″N   45°15′29″E
темп.,
°C
ветер,
м/с
пор.,
м/с
влажн.,
%
обл.,
%
осадки,
мм/ч
давл.,
гПа
погр.,
м
9 мая, вс
вс900:00+10ююв3888100 0.0 1010148
03:00+10юв41280100 0.0 1009257
06:00+11ююв51578100 0.0 1008415
09:00+16ююв71475100 0.1 1007811
12:00+15ююв71483100 0.4 1008791
15:00+18ю71364100 0.4 10081676
18:00+15юз61074100 0.1 1009453
21:00+10зсз3690100 0.1 1013328
10 мая, пн
пн1000:00+9сз3695100 1.0 1014307
03:00+9ссз4797100 2.6 1015342
06:00+9ссв3697100 0.9 1016278
09:00+10ссв4696100 1.6 1018259
12:00+14ссв798494 0.1 1018626
15:00+16ссв71179100 0.2 1019776
18:00+14ссв91589100 1.2 1020516
21:00+12ссв81593100 2.4 1021426
11 мая, вт
вт1100:00+11св7149492 0.0 1021348
03:00+11св61495100 0.0 1022313
06:00+12св61391100 0.0 1023309
09:00+16всв61276100 0.0 1024491
12:00+20в686297 0.0 10241036
15:00+20всв696279 0.3 10241117
18:00+16ююв2284100 1.3 102541
21:00+15всв357992 1.3 102591
12 мая, ср
ср1200:00+13ю4794100 0.1 1026254
03:00+12всв3795100 0.4 1026205
06:00+13в3992100 0.3 1026251
09:00+14в2889100 0.3 1027266
12:00+19вюв6106699 0.0 1026984
15:00+16юв51269100 0.0 1026408
18:00+16юв41368100 0.0 1025460
21:00+14вюв3127284 0.0 1025335
13 мая, чт
чт1300:00+13вюв4117069 0.0 1025269
03:00+12в4117199 0.0 1025230
06:00+13вюв513738 0.0 1025315
09:00+17вюв6126594 0.0 1024484
12:00+20вюв7126190 0.0 1024719
15:00+20вюв5116897 0.1 1023736
18:00+20юв5117068 0.0 1023452
21:00+16юв41177100 0.0 1024236